This is the latest recevied weather packets stored in our database for station/object LX0APE-4. If no packets are shown the sender has not sent any weather packets the latest 10 day(s).
| Time | Temp. | Humidity | Pressure | Rain* | Wind** | Luminosity | Snow |
|---|---|---|---|---|---|---|---|
| 1777388529 | 26.11° C | 24% | 5013.2 hPa | 0 mm | - | - | - |
| 1777388229 | 25.56° C | 25% | 5013.3 hPa | 0 mm | - | - | - |
| 1777387929 | 25° C | 27% | 5013.4 hPa | 0 mm | - | - | - |
| 1777387629 | 24.44° C | 27% | 5013.3 hPa | 0 mm | - | - | - |
| 1777387329 | 24.44° C | 27% | 5013.3 hPa | 0 mm | - | - | - |
| 1777387029 | 25° C | 25% | 5013.3 hPa | 0 mm | - | - | - |
| 1777386729 | 25.56° C | 25% | 5013.3 hPa | 0 mm | - | - | - |
| 1777386429 | 25.56° C | 24% | 5013.4 hPa | 0 mm | - | - | - |
| 1777386133 | 26.67° C | 23% | 5013.4 hPa | 0 mm | - | - | - |
| 1777386129 | 26.67° C | 23% | 5013.4 hPa | 0 mm | - | - | - |
| 1777385829 | 27.78° C | 22% | 5013.4 hPa | 0 mm | - | - | - |
| 1777385529 | 28.89° C | 22% | 5013.5 hPa | 0 mm | - | - | - |
| 1777385233 | 28.33° C | 22% | 5013.3 hPa | 0 mm | - | - | - |
| 1777385229 | 28.33° C | 22% | 5013.3 hPa | 0 mm | - | - | - |
| 1777384929 | 27.78° C | 22% | 5013.3 hPa | 0 mm | - | - | - |
| 1777384629 | 28.89° C | 21% | 5013.2 hPa | 0 mm | - | - | - |
| 1777384329 | 28.89° C | 21% | 5013.4 hPa | 0 mm | - | - | - |
| 1777384029 | 28.33° C | 23% | 5013.5 hPa | 0 mm | - | - | - |
| 1777383729 | 26.67° C | 23% | 5013.4 hPa | 0 mm | - | - | - |
| 1777383429 | 25° C | 25% | 5013.4 hPa | 0 mm | - | - | - |
| 1777383129 | 25° C | 25% | 5013.4 hPa | 0 mm | - | - | - |
| 1777382829 | 25° C | 27% | 5013.5 hPa | 0 mm | - | - | - |
| 1777382529 | 24.44° C | 25% | 5013.5 hPa | 0 mm | - | - | - |
| 1777382229 | 25° C | 24% | 5013.4 hPa | 0 mm | - | - | - |
| 1777381929 | 26.11° C | 24% | 5013.5 hPa | 0 mm | - | - | - |
* Rain latest hour (hover to see other rain measurements)
** Current wind speed in m/s (hover to see current wind gust speed)